Waarnemingen

Advertentie
Mijn weer
Charleroi/Gosselies, België (6449): temperatuur & dauwpunt: 13.01.2020 07:00:00 - 19.01.2020 07:00:00 (CET)Charleroi/Gosselies, België (6449): windsnelheid & windstoten: 13.01.2020 07:00:00 - 19.01.2020 07:00:00 (CET)Charleroi/Gosselies, België (6449): windrichting: 13.01.2020 07:00:00 - 19.01.2020 07:00:00 (CET)Charleroi/Gosselies, België (6449): luchtdruk: 13.01.2020 07:00:00 - 19.01.2020 07:00:00 (CET)Charleroi/Gosselies, België (6449): zicht: 13.01.2020 07:00:00 - 19.01.2020 07:00:00 (CET)
Datum & Tijd tt [°C] td [°C] ff [km/u] ff [kn] fx [km/u] fx [kn] dd ppp [hPa] vv [km]
19.01.2020 07:00:00 - - - - - - - - -
19.01.2020 06:00:00 0,2 -0,9 8 4 14 8 W 1036,1 10
19.01.2020 05:00:00 0,5 -0,6 5 3 11 6 W 1035,7 10
19.01.2020 04:00:00 1,1 -0,2 8 4 - - WNW 1034,8 10
19.01.2020 03:00:00 1,5 0,1 8 4 14 8 WNW 1034,4 10
19.01.2020 02:00:00 1,5 -0,3 8 4 11 6 WNW 1033,8 10
19.01.2020 01:00:00 0,9 -0,6 5 3 - - WNW 1033,1 10
19.01.2020 00:00:00 1,8 0,1 4 2 11 6 - 1032,5 10
18.01.2020 23:00:00 1,8 0,3 8 4 11 6 WNW 1032,2 10
18.01.2020 22:00:00 1,5 -0,2 5 3 - - WNW 1031,6 10
18.01.2020 21:00:00 2,1 0,0 5 3 11 6 WNW 1031,2 10
18.01.2020 20:00:00 2,5 0,4 8 4 14 8 WNW 1030,8 10
18.01.2020 19:00:00 3,1 0,3 8 4 - - W 1030,0 10
18.01.2020 18:00:00 3,6 -0,1 9 5 14 8 W 1029,3 10
18.01.2020 17:00:00 4,4 0,8 8 4 18 10 W 1028,6 10
18.01.2020 16:00:00 5,2 0,3 13 7 - - W 1028,0 10
18.01.2020 15:00:00 5,4 1,0 15 8 29 16 W 1027,6 10
18.01.2020 14:00:00 5,5 1,9 18 10 29 16 WZW 1027,3 10
18.01.2020 13:00:00 4,4 1,8 16 9 - - WZW 1027,4 10
18.01.2020 12:00:00 4,3 2,3 15 8 25 14 WZW 1027,5 10
18.01.2020 11:00:00 3,8 2,0 16 9 25 14 WZW 1027,0 10
18.01.2020 10:00:00 3,5 1,6 16 9 - - WZW 1026,4 10
18.01.2020 09:00:00 3,5 1,6 18 10 32 18 WZW 1025,6 10
18.01.2020 08:00:00 3,5 1,5 22 12 32 18 WZW 1024,7 10
18.01.2020 07:00:00 3,6 1,5 21 11 - - WZW 1024,2 10
18.01.2020 06:00:00 3,6 1,6 24 13 36 19 ZW 1024,0 10
18.01.2020 05:00:00 3,7 1,5 21 11 32 18 ZW 1023,6 10
18.01.2020 04:00:00 3,5 1,2 18 10 - - ZW 1023,4 10
18.01.2020 03:00:00 3,3 1,0 21 11 32 18 ZW 1023,5 10
18.01.2020 02:00:00 3,4 1,1 18 10 29 16 ZW 1023,2 10
18.01.2020 01:00:00 3,6 1,2 18 10 - - ZW 1023,0 10
18.01.2020 00:00:00 4,0 1,2 21 11 36 19 ZW 1022,3 10
17.01.2020 23:00:00 4,5 2,1 21 11 32 18 ZW 1022,1 10
17.01.2020 22:00:00 5,3 1,9 21 11 - - WZW 1021,4 10
17.01.2020 21:00:00 5,2 1,5 22 12 32 18 ZW 1020,9 10
17.01.2020 20:00:00 5,9 2,0 22 12 32 18 WZW 1020,3 10
17.01.2020 19:00:00 6,3 2,3 22 12 - - WZW 1019,4 10
17.01.2020 18:00:00 6,9 3,2 24 13 36 19 WZW 1018,4 10
17.01.2020 17:00:00 7,4 3,9 24 13 47 25 WZW 1017,2 10
17.01.2020 16:00:00 9,5 4,6 29 16 - - WZW 1016,0 10
17.01.2020 15:00:00 9,2 6,0 26 14 47 25 WZW 1015,4 10
17.01.2020 14:00:00 8,8 7,0 26 14 32 18 ZW 1015,4 10
17.01.2020 13:00:00 8,4 6,8 21 11 - - ZZW 1015,4 10
17.01.2020 12:00:00 7,8 6,5 22 12 32 18 ZZW 1015,7 10
17.01.2020 11:00:00 7,8 6,2 22 12 36 19 ZZW 1015,6 10
17.01.2020 10:00:00 7,7 5,8 22 12 - - Z 1015,5 10
17.01.2020 09:00:00 8,1 5,6 21 11 36 19 ZZW 1015,6 10
17.01.2020 08:00:00 9,1 4,3 22 12 36 19 Z 1015,3 10
17.01.2020 07:00:00 9,3 4,1 24 13 - - Z 1015,4 10
17.01.2020 06:00:00 9,2 4,3 21 11 29 16 Z 1014,9 10
17.01.2020 05:00:00 8,9 4,4 16 9 32 18 Z 1015,6 10
17.01.2020 04:00:00 9,5 4,4 21 11 - - Z 1016,2 10
17.01.2020 03:00:00 9,4 4,4 18 10 29 16 Z 1016,9 10
17.01.2020 02:00:00 8,7 4,0 18 10 36 19 Z 1017,6 10
17.01.2020 01:00:00 9,2 3,9 21 11 - - Z 1018,0 10
17.01.2020 00:00:00 9,3 4,0 22 12 40 21 Z 1018,2 10
16.01.2020 23:00:00 9,6 3,9 22 12 43 23 Z 1018,4 10
16.01.2020 22:00:00 10,2 4,5 24 13 - - Z 1019,0 10
16.01.2020 21:00:00 10,5 5,2 24 13 40 21 Z 1019,2 10
16.01.2020 20:00:00 10,2 5,5 21 11 32 18 ZZO 1019,9 10
16.01.2020 19:00:00 10,5 5,7 21 11 - - Z 1020,5 10
16.01.2020 18:00:00 10,5 6,0 18 10 36 19 Z 1021,0 10
16.01.2020 17:00:00 11,2 6,2 16 9 29 16 Z 1021,2 10
16.01.2020 16:00:00 11,8 6,5 16 9 - - Z 1021,6 10
16.01.2020 15:00:00 11,2 6,8 22 12 40 21 Z 1021,8 10
16.01.2020 14:00:00 10,6 6,6 21 11 36 19 Z 1022,7 10
16.01.2020 13:00:00 9,3 6,3 22 12 - - Z 1023,9 10
16.01.2020 12:00:00 8,1 5,7 21 11 32 18 Z 1025,0 10
16.01.2020 11:00:00 7,4 5,6 16 9 29 16 Z 1025,5 10
16.01.2020 10:00:00 5,1 4,3 15 8 - - Z 1025,7 4,5
16.01.2020 09:00:00 3,5 2,7 9 5 22 12 ZZO 1025,8 7
16.01.2020 08:00:00 3,2 2,4 11 6 22 12 Z 1026,1 7
16.01.2020 07:00:00 3,7 2,8 13 7 - - Z 1026,2 8
16.01.2020 06:00:00 3,9 3,1 9 5 14 8 Z 1026,0 8
16.01.2020 05:00:00 3,9 3,2 9 5 11 6 Z 1025,9 10
16.01.2020 04:00:00 4,1 3,4 7 4 - - Z 1025,6 20
16.01.2020 03:00:00 4,5 3,5 9 5 14 8 Z 1025,3 10
16.01.2020 02:00:00 5,2 3,9 9 5 14 8 ZZW 1024,7 10
16.01.2020 01:00:00 5,4 4,1 11 6 - - ZZW 1024,3 10
16.01.2020 00:00:00 6,1 4,3 13 7 22 12 ZW 1023,6 10
15.01.2020 23:00:00 6,4 4,8 15 8 18 10 ZW 1022,6 10
15.01.2020 22:00:00 6,8 5,3 15 8 - - ZW 1021,5 10
15.01.2020 21:00:00 7,6 5,8 16 9 29 16 WZW 1020,4 10
15.01.2020 20:00:00 8,5 6,7 18 10 32 18 WZW 1019,3 10
15.01.2020 19:00:00 9,2 7,2 22 12 - - ZW 1017,8 10
15.01.2020 18:00:00 9,2 7,0 26 14 43 23 ZW 1015,9 10
15.01.2020 17:00:00 9,4 6,9 28 15 43 23 ZZW 1014,5 10
15.01.2020 16:00:00 9,6 6,2 28 15 - - ZZW 1013,2 10
15.01.2020 15:00:00 10,6 5,1 34 18 54 29 ZZW 1011,8 10
15.01.2020 14:00:00 10,9 4,6 37 20 58 31 ZZW 1011,5 10
15.01.2020 13:00:00 10,7 3,9 35 19 - - Z 1010,9 10
15.01.2020 12:00:00 9,3 3,6 34 18 58 31 ZZW 1011,1 10
15.01.2020 11:00:00 8,7 3,4 34 18 54 29 Z 1011,3 10
15.01.2020 10:00:00 8,3 3,5 29 16 - - ZZW 1011,1 10
15.01.2020 09:00:00 8,3 3,5 29 16 50 27 Z 1010,7 10
15.01.2020 08:00:00 8,6 3,6 31 17 50 27 Z 1010,4 10
15.01.2020 07:00:00 9,1 4,1 29 16 - - Z 1010,2 10
15.01.2020 06:00:00 9,3 4,5 29 16 50 27 Z 1009,9 10
15.01.2020 05:00:00 9,4 5,1 31 17 47 25 Z 1010,1 10
15.01.2020 04:00:00 9,5 5,3 29 16 - - ZZW 1010,2 10
15.01.2020 03:00:00 9,6 6,0 34 18 50 27 ZZW 1009,7 10
15.01.2020 02:00:00 9,9 6,6 31 17 61 33 ZZW 1009,7 10
15.01.2020 01:00:00 9,9 7,0 34 18 - - ZZW 1009,8 10
15.01.2020 00:00:00 10,0 6,8 35 19 58 31 ZZW 1009,7 10
14.01.2020 23:00:00 10,6 5,8 34 18 58 31 ZZW 1009,5 10
14.01.2020 22:00:00 10,4 6,1 35 19 - - ZZW 1008,9 10
14.01.2020 21:00:00 9,8 5,8 39 21 58 31 ZZW 1008,6 10
14.01.2020 20:00:00 9,3 6,7 34 18 61 33 ZZW 1008,4 6
14.01.2020 19:00:00 9,7 7,2 42 23 - - ZZW 1007,9 10
14.01.2020 18:00:00 10,2 7,7 39 21 65 35 ZZW 1007,8 10
14.01.2020 17:00:00 9,5 7,6 37 20 58 31 ZZW 1007,0 10
14.01.2020 16:00:00 8,9 6,3 34 18 - - ZZW 1007,3 10
14.01.2020 15:00:00 8,9 5,4 35 19 61 33 Z 1006,7 10
14.01.2020 14:00:00 9,3 5,5 34 18 54 29 Z 1006,9 10
14.01.2020 13:00:00 9,0 6,3 31 17 - - Z 1007,3 10
14.01.2020 12:00:00 9,0 5,8 35 19 65 35 ZZW 1007,5 10
14.01.2020 11:00:00 8,4 5,5 35 19 58 31 ZZW 1007,5 10
14.01.2020 10:00:00 8,4 6,0 37 20 - - ZZW 1007,1 10
14.01.2020 09:00:00 8,9 5,0 34 18 58 31 ZZW 1006,4 10
14.01.2020 08:00:00 8,5 5,1 35 19 54 29 ZZW 1006,0 10
14.01.2020 07:00:00 8,2 5,8 35 19 - - ZZW 1005,6 10
14.01.2020 06:00:00 8,1 5,9 34 18 61 33 ZZW 1005,7 10
14.01.2020 05:00:00 7,9 6,0 35 19 54 29 Z 1005,5 6
14.01.2020 04:00:00 8,5 5,9 34 18 - - ZZW 1006,0 6
14.01.2020 03:00:00 9,3 5,7 35 19 58 31 ZZW 1006,3 10
14.01.2020 02:00:00 9,4 6,2 31 17 58 31 ZZW 1006,4 10
14.01.2020 01:00:00 9,1 6,6 37 20 - - Z 1007,3 10
14.01.2020 00:00:00 9,1 6,4 34 18 65 35 Z 1007,8 10
13.01.2020 23:00:00 9,1 6,6 35 19 58 31 Z 1008,4 10
13.01.2020 22:00:00 8,8 6,9 35 19 - - Z 1009,3 10
13.01.2020 21:00:00 8,4 7,0 31 17 47 25 Z 1010,3 6
13.01.2020 20:00:00 8,0 6,7 24 13 43 23 Z 1010,9 10
13.01.2020 19:00:00 7,7 6,2 24 13 - - Z 1011,6 9
13.01.2020 18:00:00 7,6 6,1 28 15 47 25 Z 1012,6 10
13.01.2020 17:00:00 7,8 5,9 24 13 40 21 Z 1013,3 10
13.01.2020 16:00:00 7,6 5,4 22 12 - - Z 1014,1 10
13.01.2020 15:00:00 7,5 4,8 21 11 40 21 Z 1015,2 10
13.01.2020 14:00:00 7,5 4,3 24 13 40 21 Z 1016,2 10
13.01.2020 13:00:00 7,7 3,5 26 14 - - ZZW 1017,5 10
13.01.2020 12:00:00 7,1 4,6 21 11 32 18 ZZW 1019,4 10
13.01.2020 11:00:00 7,0 5,1 22 12 29 16 ZZW 1019,9 10
13.01.2020 10:00:00 6,5 5,1 11 6 - - Z 1020,2 10
13.01.2020 09:00:00 6,5 4,8 13 7 22 12 Z 1020,2 10
13.01.2020 08:00:00 6,1 4,7 16 9 25 14 Z 1020,5 10
13.01.2020 07:00:00 5,8 4,4 15 8 - - ZZW 1021,2 10

tt = temperatuur
td = dauwpunt
ff = windsnelheid
fx = windstoten
dd = windrichting
ppp = luchtdruk
vv = zicht

Weerstations in de omgeving